Location: Lourdes
(43.1000°N, 0.0500°W)
Time: 08:01:19
(UTC+00:00)

H-2A R/B - Visible Passes

Search period start: 14 April 2021 00:00
Search period end: 24 April 2021 00:00
Orbit: 732 x 837 km, 98.2° (Epoch: 13 April)

Date Brightness Start Highest point End Pass type
(mag) Time Alt. Az. Time Alt. Az. Time Alt. Az.
14 Apr 4.3 19:34:24 10° SSW 19:38:34 25° W 19:42:41 10° NW visible
16 Apr 5.1 20:15:11 10° WSW 20:16:24 11° W 20:17:37 10° WNW visible
17 Apr 4.5 19:41:14 10° SW 19:45:04 22° W 19:48:52 10° NW visible
18 Apr 3.4 19:09:08 10° S 19:13:53 41° W 19:18:34 10° NNW visible
20 Apr 4.7 19:48:08 10° SW 19:51:35 19° W 19:55:01 10° NW visible
21 Apr 3.7 19:15:47 10° SSW 19:20:21 36° W 19:24:53 10° NNW visible
23 Apr 4.7 19:55:07 10° SW 19:58:06 16° W 20:01:05 10° NW visible
